Location: Poughquag
(41.6090°N, 73.6820°W)
Time: 03:34:19
(UTC-04:00)

S-56A Canister/Altair - Pass Details

Date: 02 June 2020
Orbit: 633 x 2499 km, 38.9° (Epoch: 06 July)

Event Time Altitude Azimuth Distance (km) Brightness Sun altitude
Rises 06:07:51 0° 254° (WSW) 3,332 10.1 6.7°
Reaches altitude 10° 06:09:59 10° 252° (WSW) 2,553 9.6 7.1°
Maximum altitude 06:16:01 70° 170° (S) 1,218 8.7 8.1°
Drops below altitude 10° 06:25:17 10° 89° (E) 3,828 12.7 9.7°
Sets 06:29:09 0° 88° (E) 5,119 13.3 10.4°
